MOZHAETS 4 (RS22)

Last updated on Mon Sep 21 2026 00:03:14 GMT+0000 (Coordinated Universal Time)

1 27939U 03042A 26263.62305421 .00000298 00000+0 54096-4 0 9997 2 27939 98.3484 90.7080 0010734 332.3379 117.2831 14.73605264229607
UTC large
Height (km)
Speed (km/s)
/
Latitude / Longitude
Inclination (degrees)
Orbital Period (minutes)
Azimuth
Elevation
Range (km)
Doppler Factor

Next 0 passes for location: London (51.5072 / 0.1276)

No passes found over London.
MOZHAETS 4 (RS22)